Wind_Speed
13 11 9 12 10 12 15 14 13 12 13 11 12 11 8 7 7 7 5 2 1 3 1 1 3 2 2 3 2 2 3 4 4 5 7 9 10 11 12 14 15 15 16 17 16 16 15 14 14
15 13 11 9 10 9 9 13 8 10 9 11 10 12 9 7 3 3 2 3 3 2 2 1 4 4 5 5 3 2 3 4 5 7 8 8 9 11 12 14 15 15 16 16 16 16 14 13 13
17 15 14 14 9 9 8 7 9 5 8 10 8 8 8 3 3 1 1 4 3 4 3 3 5 7 7 6 5 4 3 3 4 6 7 8 9 10 12 13 14 15 15 17 18 19 18 16 15
19 16 16 14 12 9 8 9 6 5 6 5 4 5 5 3 4 5 2 3 7 8 6 6 8 10 9 8 6 4 4 4 5 6 7 7 9 10 12 13 14 14 14 15 16 17 18 17 15
22 20 19 19 12 10 8 8 11 3 3 4 1 7 4 2 5 2 1 5 9 12 8 8 9 9 8 7 5 4 4 5 6 6 7 9 11 12 14 15 16 15 15 15 16 16 17 17 15
26 23 24 21 11 11 10 10 10 5 2 6 9 7 4 2 6 6 5 8 10 9 11 11 11 9 8 6 5 4 4 4 6 7 10 12 13 15 15 15 15 15 14 14 14 14 16 16 15
29 26 26 24 17 17 8 9 11 11 10 8 11 10 1 5 6 6 8 5 5 9 11 11 10 9 8 7 6 5 5 5 7 7 9 11 11 13 12 12 12 12 12 11 11 11 9 11 12
33 29 29 26 23 17 16 17 12 7 9 8 11 8 6 9 9 7 5 2 3 5 5 5 7 7 6 5 3 2 2 3 5 5 7 9 11 12 12 11 11 11 10 10 10 10 10 10 11
36 30 32 29 24 17 18 20 18 15 12 8 9 7 8 10 10 8 4 2 3 3 2 2 3 4 3 4 3 3 2 2 4 6 9 10 10 11 12 12 12 12 13 12 9 9 11 11 12
36 34 33 30 25 20 21 23 20 15 12 10 10 3 3 5 10 9 4 3 4 4 4 4 2 2 2 2 3 3 3 4 7 9 10 10 10 11 11 11 13 13 15 14 13 12 14 15 16
35 34 34 33 25 23 23 22 18 16 12 14 11 2 3 7 9 11 6 2 3 3 3 3 4 2 1 3 4 5 7 9 11 13 12 11 10 11 11 13 14 14 14 14 14 14 16 18 18
34 36 35 35 29 26 26 25 23 21 21 16 18 5 5 5 8 11 9 7 7 6 4 3 4 4 5 6 8 9 10 11 12 14 12 11 11 10 10 11 11 11 12 13 14 15 16 17 18
28 37 39 38 29 30 30 27 26 23 22 19 18 11 4 7 8 12 12 11 9 9 5 5 7 9 10 11 9 8 8 7 7 9 10 10 9 8 9 9 11 13 13 14 14 14 15 16 17
25 36 40 39 33 31 30 29 29 25 24 22 22 15 10 12 10 12 14 13 11 10 7 7 11 14 14 11 8 7 7 6 7 8 9 10 10 10 11 12 13 17 18 16 18 17 16 17 20
22 32 38 39 36 34 34 33 33 28 28 27 26 22 11 11 5 13 15 16 15 13 11 12 12 13 14 13 11 9 8 8 10 11 12 12 12 12 13 15 17 18 18 18 18 23 24 23 23
21 26 35 39 40 39 38 32 32 33 32 29 26 24 14 17 14 13 17 17 19 16 16 14 15 16 16 14 12 10 10 10 11 12 13 14 15 15 17 18 18 20 20 25 25 24 24 28 27
22 24 41 43 43 44 43 38 34 34 33 32 30 30 27 18 17 16 20 19 21 19 19 19 18 18 16 15 14 14 13 13 13 13 16 18 18 18 19 19 18 19 20 23 25 24 26 25 25
24 27 29 49 48 47 47 44 41 41 40 38 36 34 34 22 17 24 23 22 22 22 20 19 17 17 17 17 15 15 16 16 16 17 18 21 23 20 22 22 23 21 22 25 26 28 27 29 29
26 27 30 31 52 55 52 51 48 47 45 43 40 39 40 39 30 29 28 25 24 23 21 19 16 15 17 19 20 18 17 17 18 20 20 22 24 24 26 26 28 26 27 27 28 31 32 33 33
28 28 26 32 38 48 59 60 56 54 52 51 47 46 44 45 32 27 30 29 26 25 21 18 16 15 17 22 24 21 19 18 19 21 22 23 24 26 28 30 31 32 33 34 33 34 36 36 35
31 29 29 34 38 42 45 53 60 59 54 51 49 48 44 45 38 32 37 34 29 26 21 18 18 17 18 19 22 20 19 19 19 19 20 21 23 25 29 32 33 33 36 37 36 37 37 36 34
34 34 37 37 40 41 44 50 49 51 52 48 44 41 36 32 35 34 37 31 30 27 23 21 21 21 20 20 21 22 22 20 18 17 19 22 23 27 30 31 34 33 32 31 32 32 34 34 33
34 37 38 39 43 46 44 51 46 45 46 41 42 38 33 29 35 33 35 29 31 30 29 27 25 26 25 24 23 26 26 26 23 22 21 23 26 28 33 34 33 34 33 35 36 34 33 32 32
35 37 39 40 41 49 42 47 50 47 40 38 38 38 37 38 43 40 36 36 32 32 32 32 31 32 29 27 27 28 30 30 30 28 27 25 28 32 33 34 34 34 32 32 36 36 34 32 30
34 36 39 42 43 45 41 48 51 48 42 41 39 39 37 39 44 43 40 37 38 32 31 31 32 34 34 34 30 31 34 35 36 36 36 37 37 38 37 42 40 35 32 34 33 34 33 32 26
33 34 38 43 44 42 43 50 43 46 45 42 43 46 48 46 47 47 44 42 41 38 37 34 32 35 36 37 38 41 39 40 40 38 41 43 43 40 45 38 37 35 32 31 34 35 33 31 28
34 36 39 45 46 50 48 49 44 42 40 39 43 45 45 45 45 47 47 47 43 41 42 43 41 40 38 36 43 45 45 46 44 43 46 45 43 40 44 44 31 33 31 30 31 33 36 35 32
37 38 40 43 49 52 53 52 50 48 45 44 42 44 42 43 44 46 51 51 50 49 52 49 47 45 45 49 49 48 49 50 48 50 52 50 47 43 45 42 36 34 32 32 33 37 38 38 37
40 44 43 44 48 54 57 55 56 53 49 46 45 45 46 45 45 46 48 49 52 54 55 55 54 52 52 49 48 50 54 60 60 56 57 51 44 44 43 36 34 31 35 39 42 45 41 39 40
48 49 51 53 54 53 57 62 57 55 55 52 49 47 46 46 46 47 47 45 46 46 46 47 49 47 44 45 49 51 55 59 64 60 58 45 29 30 28 27 27 32 34 39 45 44 43 41 42
Wind_Direction
201 200 189 147 141 153 157 133 124 132 129 118 115 112 96 68 66 59 62 65 159 159 197 16 303 279 282 277 292 15 12 14 13 2 358 352 345 339 336 336 337 342 345 345 344 345 352 352 354
201 206 194 192 152 158 158 149 160 125 128 133 135 125 118 92 76 76 57 350 339 273 261 266 285 282 281 272 285 336 0 357 349 343 337 333 325 324 326 332 337 343 344 341 341 340 341 342 341
207 212 204 212 177 164 177 183 192 149 101 142 137 137 141 136 180 188 24 344 319 300 291 284 265 254 251 262 281 300 320 319 312 306 304 307 311 320 325 331 334 338 339 340 343 341 342 344 340
204 210 225 217 194 190 203 224 220 140 102 122 115 93 79 74 289 284 214 339 336 307 299 279 259 254 249 250 251 264 275 280 283 288 292 304 316 320 320 322 326 332 334 336 332 333 335 339 341
202 209 224 231 199 216 205 224 245 219 118 115 11 7 13 297 354 340 291 304 308 303 292 264 249 249 242 238 231 222 226 246 261 279 296 308 311 312 315 317 318 325 331 335 333 332 328 329 333
201 208 220 224 193 190 198 225 249 246 339 0 12 358 330 80 85 37 8 320 318 295 287 269 261 239 227 215 211 216 239 264 285 303 311 314 314 315 319 321 323 327 334 336 335 335 331 338 337
201 202 218 227 216 194 212 233 245 257 291 326 1 354 119 67 49 26 3 322 305 304 288 265 253 242 239 239 236 234 254 274 289 306 326 333 339 344 342 344 335 337 343 350 351 350 348 356 355
200 203 218 225 231 219 228 232 243 258 277 315 346 353 47 37 28 25 5 285 265 284 265 241 241 244 233 238 235 227 223 269 299 326 338 344 344 346 344 342 339 343 351 352 357 355 0 358 352
201 202 218 226 232 227 219 229 234 250 270 290 349 16 72 44 34 22 5 238 200 188 186 197 199 205 195 188 226 250 254 290 310 317 327 336 342 335 333 333 334 332 331 338 339 337 334 329 325
202 203 216 226 228 230 221 232 249 255 273 308 343 73 114 16 0 6 0 257 209 189 161 147 147 132 162 210 268 287 305 318 309 306 308 321 328 326 321 323 321 324 328 330 323 320 319 313 312
205 201 217 228 228 226 231 233 238 253 261 303 315 282 233 300 329 326 330 255 237 198 188 206 172 180 259 277 288 302 312 315 308 306 305 308 309 310 320 315 314 321 321 323 321 315 307 306 310
201 201 218 229 229 225 231 237 244 260 279 310 335 305 246 264 319 315 296 266 253 216 196 207 261 247 241 264 285 303 309 309 312 305 306 303 306 312 312 316 321 321 320 315 318 319 313 310 312
203 203 215 227 226 227 236 242 253 264 274 283 319 325 290 287 313 315 277 270 267 221 203 239 263 267 272 276 285 306 321 330 329 332 324 318 318 317 316 314 312 306 310 309 314 318 318 317 318
218 211 217 227 224 230 236 244 254 258 264 268 283 302 297 292 301 318 276 264 259 225 251 261 260 272 277 278 284 307 322 333 323 317 319 327 321 314 309 309 309 315 319 302 307 304 305 314 319
231 223 221 222 231 233 242 247 250 256 260 264 273 288 283 289 265 302 249 248 244 227 244 256 271 261 271 270 283 295 301 313 321 319 320 325 325 319 319 312 306 310 312 320 309 306 308 309 313
230 242 229 223 234 239 246 245 245 249 258 266 268 281 294 307 290 274 236 231 233 237 242 250 257 258 262 260 267 281 294 304 311 309 313 313 314 315 314 314 310 308 308 309 309 310 304 303 305
225 233 229 223 233 240 244 253 248 251 257 262 268 280 283 295 284 249 231 229 229 232 236 245 253 253 256 263 262 268 277 285 293 299 302 304 311 312 313 311 307 313 313 308 308 311 311 318 315
226 225 227 227 231 240 248 254 254 254 257 261 269 271 280 285 281 236 229 230 235 236 244 251 254 257 257 262 259 264 268 277 287 293 295 301 306 311 312 313 316 318 311 310 311 309 310 308 311
242 233 230 229 230 238 244 251 254 256 260 264 270 273 277 279 282 240 231 232 242 246 248 254 256 263 264 262 263 267 268 274 278 284 291 297 301 310 311 311 311 313 311 308 306 306 308 307 307
249 248 243 239 237 241 236 244 249 253 260 263 265 268 271 272 269 246 227 231 241 245 245 252 260 264 260 261 264 269 272 273 276 285 293 298 300 306 309 308 308 308 309 308 309 307 307 306 306
251 251 248 244 243 245 247 246 247 251 257 264 266 265 266 268 267 235 222 227 238 242 243 248 255 254 262 268 265 263 265 267 269 275 284 293 297 302 304 304 301 302 306 304 303 302 302 304 305
252 251 246 247 249 246 248 251 250 254 258 261 262 262 263 265 260 257 227 222 236 238 238 243 248 251 257 266 263 262 265 266 274 283 287 287 289 294 294 300 306 302 311 314 311 310 308 307 305
254 253 253 251 251 253 250 256 258 253 256 259 260 261 258 253 254 258 247 224 230 233 234 237 244 250 251 264 271 270 274 276 276 278 282 288 290 295 301 300 302 300 300 306 309 313 311 308 308
261 260 260 257 256 255 255 257 258 259 257 259 255 254 253 249 251 260 255 241 232 234 238 240 240 247 253 261 265 274 274 275 280 278 278 287 291 294 298 299 298 296 292 298 302 304 308 309 307
263 264 265 264 261 263 258 254 257 260 257 258 255 255 253 250 255 264 259 256 245 240 241 245 249 257 260 261 263 271 274 273 276 278 281 285 288 287 291 297 298 292 287 292 298 300 302 303 301
264 264 264 266 265 263 263 261 259 259 259 257 257 258 257 257 259 262 263 256 250 251 255 263 262 261 264 267 268 269 265 269 272 274 279 280 284 292 296 294 291 299 288 289 296 297 302 299 295
262 263 263 267 267 266 260 260 262 262 262 255 252 249 251 254 255 257 258 264 264 261 268 270 266 268 271 272 273 269 267 268 268 273 275 280 284 291 294 292 289 295 292 295 299 301 300 295 290
267 261 259 260 265 266 268 268 266 261 257 257 253 254 251 251 250 252 256 260 263 266 269 268 273 276 277 281 280 269 268 270 270 272 273 274 279 282 289 288 285 287 287 283 291 297 294 293 291
268 272 269 264 261 264 268 266 267 268 266 260 256 255 256 257 255 253 255 260 266 268 269 271 274 274 276 278 276 276 279 280 270 269 274 279 278 276 276 280 280 283 283 281 290 296 288 290 290
268 264 264 264 264 262 265 266 269 269 269 268 263 257 254 255 256 256 254 250 256 263 267 268 271 272 268 266 266 267 271 277 282 276 274 264 276 268 273 271 281 288 291 288 289 287 286 290 292
Height
5908 5909 5910 5913 5917 5917 5918 5918 5918 5918 5918 5918 5918 5918 5920 5921 5921 5923 5920 5921 5921 5920 5921 5922 5921 5921 5922 5921 5920 5918 5918 5918 5917 5917 5917 5917 5917 5915 5914 5913 5912 5910 5908 5906 5904 5903 5902 5901 5899
5907 5907 5910 5912 5916 5917 5918 5918 5918 5918 5918 5918 5919 5918 5919 5920 5922 5921 5921 5921 5921 5921 5921 5920 5921 5920 5921 5920 5919 5918 5917 5917 5917 5917 5917 5916 5916 5915 5913 5912 5911 5909 5907 5906 5904 5902 5902 5901 5899
5905 5906 5909 5911 5914 5916 5917 5917 5917 5918 5918 5918 5919 5918 5918 5919 5919 5920 5920 5921 5921 5921 5920 5920 5920 5920 5920 5919 5918 5918 5917 5916 5916 5915 5915 5915 5914 5913 5912 5911 5910 5909 5907 5905 5903 5901 5900 5900 5898
5904 5905 5907 5908 5913 5915 5915 5915 5915 5917 5917 5916 5917 5917 5917 5916 5916 5917 5918 5919 5920 5920 5919 5919 5919 5919 5918 5918 5917 5917 5917 5916 5915 5913 5913 5913 5912 5912 5911 5910 5908 5908 5906 5905 5902 5900 5898 5896 5896
5902 5904 5904 5905 5911 5913 5914 5914 5914 5915 5916 5915 5914 5912 5913 5914 5914 5915 5916 5917 5918 5918 5918 5918 5917 5917 5916 5915 5915 5915 5915 5915 5914 5912 5912 5912 5911 5911 5910 5909 5908 5907 5906 5904 5901 5899 5895 5894 5893
5900 5902 5902 5904 5910 5912 5913 5913 5913 5913 5915 5913 5914 5913 5913 5913 5914 5916 5916 5916 5916 5916 5917 5916 5916 5915 5914 5914 5914 5914 5913 5913 5913 5912 5912 5911 5910 5909 5908 5907 5906 5905 5904 5903 5899 5898 5895 5893 5891
5897 5900 5900 5902 5907 5910 5911 5911 5911 5912 5913 5912 5912 5912 5913 5914 5914 5915 5915 5915 5915 5916 5915 5915 5914 5913 5913 5913 5912 5912 5911 5911 5912 5911 5910 5909 5908 5907 5906 5904 5904 5903 5902 5901 5899 5897 5895 5892 5890
5894 5897 5898 5901 5903 5908 5910 5909 5909 5910 5912 5912 5912 5911 5912 5913 5913 5914 5914 5913 5913 5914 5914 5914 5913 5912 5911 5911 5911 5910 5910 5910 5910 5910 5908 5908 5907 5907 5905 5904 5902 5901 5901 5900 5898 5898 5895 5893 5891
5891 5895 5896 5898 5901 5905 5907 5907 5908 5910 5911 5911 5911 5911 5911 5912 5912 5913 5913 5913 5912 5912 5913 5912 5912 5911 5910 5910 5910 5910 5910 5909 5908 5908 5907 5907 5906 5905 5905 5903 5901 5900 5899 5899 5898 5896 5893 5892 5891
5888 5893 5894 5896 5900 5903 5904 5905 5906 5909 5910 5912 5911 5911 5911 5911 5911 5911 5911 5911 5911 5912 5911 5911 5912 5911 5909 5909 5910 5910 5910 5908 5908 5907 5906 5905 5904 5904 5903 5902 5901 5899 5898 5898 5897 5895 5892 5890 5889
5886 5890 5891 5893 5897 5900 5901 5903 5904 5906 5907 5909 5910 5910 5910 5910 5910 5909 5909 5910 5910 5911 5911 5911 5910 5909 5909 5909 5909 5908 5908 5908 5907 5906 5905 5904 5902 5902 5901 5900 5900 5898 5896 5895 5894 5892 5891 5888 5887
5883 5887 5888 5890 5894 5897 5898 5900 5903 5905 5906 5908 5908 5908 5909 5909 5909 5909 5908 5908 5908 5908 5909 5909 5909 5908 5908 5908 5908 5907 5907 5906 5905 5905 5903 5901 5900 5900 5899 5898 5897 5895 5894 5892 5890 5889 5888 5886 5884
5880 5884 5885 5886 5891 5894 5895 5898 5900 5903 5904 5906 5906 5907 5907 5907 5908 5907 5906 5905 5906 5906 5907 5907 5907 5907 5906 5906 5906 5906 5906 5905 5903 5902 5901 5900 5899 5898 5898 5896 5894 5893 5892 5890 5888 5886 5885 5884 5882
5878 5878 5880 5883 5888 5890 5893 5894 5896 5900 5901 5904 5904 5906 5905 5906 5906 5905 5904 5903 5903 5904 5904 5904 5905 5905 5905 5905 5905 5904 5904 5903 5901 5900 5899 5898 5898 5897 5896 5894 5893 5890 5889 5887 5885 5884 5882 5880 5879
5874 5875 5877 5881 5884 5887 5888 5890 5892 5896 5897 5898 5901 5902 5903 5903 5904 5903 5902 5901 5901 5902 5902 5902 5903 5903 5903 5903 5902 5902 5901 5901 5899 5897 5896 5896 5896 5895 5894 5892 5890 5888 5886 5884 5883 5882 5879 5878 5876
5872 5874 5876 5879 5879 5881 5883 5886 5889 5890 5890 5893 5895 5897 5899 5900 5900 5900 5898 5899 5898 5899 5900 5899 5898 5898 5898 5899 5899 5899 5898 5897 5896 5894 5894 5893 5892 5891 5890 5889 5887 5885 5884 5882 5881 5879 5877 5875 5874
5869 5871 5873 5876 5876 5876 5877 5878 5884 5885 5885 5886 5889 5891 5894 5897 5896 5896 5895 5895 5896 5896 5896 5896 5895 5895 5894 5895 5896 5896 5895 5894 5892 5891 5889 5888 5888 5888 5886 5886 5883 5882 5880 5879 5878 5876 5874 5871 5871
5863 5865 5867 5871 5871 5870 5869 5872 5876 5877 5879 5881 5883 5885 5887 5891 5894 5892 5891 5891 5891 5892 5892 5892 5890 5890 5891 5892 5892 5891 5891 5889 5888 5887 5887 5885 5883 5883 5882 5881 5880 5879 5878 5876 5873 5871 5870 5869 5867
5858 5861 5863 5865 5866 5863 5864 5865 5869 5870 5872 5875 5877 5879 5881 5884 5890 5889 5887 5887 5887 5887 5887 5886 5886 5886 5887 5887 5887 5886 5886 5885 5884 5883 5883 5882 5880 5879 5877 5876 5874 5874 5873 5872 5869 5867 5865 5862 5860
5853 5856 5860 5860 5857 5854 5858 5855 5860 5863 5865 5867 5872 5873 5874 5878 5882 5885 5883 5882 5882 5883 5882 5882 5882 5881 5881 5881 5881 5881 5882 5881 5880 5879 5878 5878 5877 5875 5874 5872 5870 5868 5865 5863 5862 5859 5857 5854 5852
5846 5850 5851 5850 5848 5848 5850 5850 5853 5856 5858 5860 5863 5866 5868 5871 5875 5877 5877 5876 5877 5877 5877 5877 5876 5876 5876 5875 5875 5875 5875 5875 5875 5875 5874 5873 5872 5871 5868 5866 5865 5863 5860 5857 5854 5852 5850 5847 5845
5840 5841 5841 5842 5840 5842 5842 5840 5846 5850 5851 5854 5858 5860 5863 5865 5867 5869 5870 5870 5870 5871 5871 5871 5870 5871 5871 5871 5870 5869 5869 5869 5869 5868 5868 5867 5865 5863 5862 5860 5858 5856 5853 5850 5848 5845 5842 5840 5838
5833 5832 5833 5835 5833 5831 5835 5831 5839 5843 5844 5849 5850 5852 5856 5859 5860 5861 5863 5863 5863 5864 5864 5864 5864 5865 5865 5865 5864 5863 5863 5862 5861 5860 5859 5858 5857 5856 5853 5851 5849 5848 5846 5844 5842 5839 5836 5833 5831
5824 5825 5824 5825 5826 5820 5831 5826 5826 5831 5839 5843 5844 5846 5850 5852 5852 5854 5854 5855 5856 5856 5857 5856 5856 5856 5856 5857 5857 5856 5854 5853 5852 5851 5850 5849 5849 5847 5845 5843 5841 5839 5838 5836 5834 5831 5828 5825 5823
5815 5816 5815 5815 5815 5814 5821 5815 5816 5821 5828 5832 5837 5838 5840 5842 5844 5845 5846 5847 5848 5849 5850 5849 5848 5848 5847 5846 5843 5846 5845 5842 5841 5841 5841 5840 5839 5838 5837 5835 5833 5830 5829 5827 5825 5822 5820 5817 5815
5808 5808 5807 5803 5805 5806 5806 5801 5812 5814 5818 5822 5824 5827 5829 5832 5834 5835 5836 5837 5837 5838 5839 5840 5840 5839 5840 5839 5837 5837 5835 5834 5833 5832 5831 5830 5830 5829 5829 5826 5824 5821 5818 5817 5816 5814 5812 5810 5808
5800 5799 5798 5793 5794 5792 5796 5797 5801 5805 5808 5812 5810 5811 5814 5817 5820 5821 5822 5822 5825 5827 5827 5827 5828 5829 5829 5829 5828 5826 5824 5824 5823 5821 5819 5819 5820 5819 5816 5816 5812 5811 5809 5808 5808 5806 5805 5803 5801
5788 5790 5789 5786 5781 5781 5781 5784 5787 5790 5796 5797 5800 5800 5803 5804 5805 5807 5809 5811 5814 5815 5813 5815 5815 5816 5817 5817 5815 5814 5813 5811 5811 5809 5810 5809 5809 5808 5808 5807 5805 5802 5800 5799 5798 5797 5796 5794 5791
5780 5774 5775 5776 5774 5768 5768 5772 5772 5776 5780 5784 5787 5789 5791 5793 5795 5797 5798 5800 5800 5801 5801 5803 5803 5805 5805 5805 5805 5804 5802 5801 5799 5798 5800 5799 5798 5796 5798 5797 5794 5791 5791 5790 5788 5786 5784 5782 5780
5766 5766 5763 5759 5759 5759 5756 5754 5762 5764 5764 5767 5772 5776 5778 5780 5782 5784 5786 5788 5790 5791 5791 5791 5791 5792 5794 5796 5793 5792 5792 5790 5788 5787 5787 5784 5786 5787 5786 5786 5784 5783 5779 5779 5777 5775 5774 5773 5770